Location: Poughquag
(41.6090°N, 73.6820°W)
Time: 02:44:08
(UTC-04:00)

Vanguard 1 Rocket - Pass Details

Date: 29 May 2020
Orbit: 653 x 4224 km, 34.3° (Epoch: 06 July)

Event Time Altitude Azimuth Distance (km) Brightness Sun altitude
Rises 00:21:52 0° 222° (SW) 8,263 11.9 -26.3°
Reaches altitude 10° 00:28:38 10° 216° (SW) 6,914 11.4 -26.5°
Enters shadow 00:29:05 11° 215° (SW) 6,822 11.4 -26.5°
Exits shadow 00:44:13 37° 175° (S) 3,870 10.0 -26.7°
Maximum altitude 00:46:51 39° 157° (SSE) 3,551 9.8 -26.7°
Drops below altitude 10° 00:57:26 10° 94° (E) 4,108 10.7 -26.7°
Sets 01:00:16 0° 86° (E) 4,728 11.1 -26.7°
